Time,TemperatureF,DewpointF,PressureIn,WindDirection,WindDirectionDegrees,WindSpeedMPH,WindSpeedGustMPH,Humidity,HourlyPrecipIn,Conditions,Clouds,dailyrainin,SolarRadiationWatts/m^2,SoftwareType,DateUTC
2013-06-05 00:02:00,81.0,47.0,-100.00,SE,143,9.0,15.0,31,0.00,,,0.00,1.000000,,2013-06-05 07:02:00,
2013-06-05 00:12:00,81.0,47.0,-100.00,SE,143,9.0,15.0,31,0.00,,,0.00,1.000000,,2013-06-05 07:12:00,
2013-06-05 00:32:00,79.0,47.0,-100.00,NW,317,2.0,11.0,33,0.00,,,-99.99,1.000000,,2013-06-05 07:32:00,
2013-06-05 00:42:00,79.0,47.0,-100.00,NW,317,2.0,11.0,33,0.00,,,-99.99,1.000000,,2013-06-05 07:42:00,
2013-06-05 00:52:00,79.0,47.0,-100.00,NW,317,2.0,11.0,33,0.00,,,-99.99,1.000000,,2013-06-05 07:52:00,
2013-06-05 01:02:00,79.0,47.0,-100.00,NW,317,2.0,11.0,33,0.00,,,-99.99,1.000000,,2013-06-05 08:02:00,
2013-06-05 01:12:00,79.0,47.0,-100.00,NW,317,2.0,11.0,33,0.00,,,-99.99,1.000000,,2013-06-05 08:12:00,
2013-06-05 01:32:00,77.0,46.0,-100.00,SW,234,0.0,4.0,33,0.00,,,0.00,1.000000,,2013-06-05 08:32:00,
2013-06-05 01:42:00,77.0,46.0,-100.00,SW,234,0.0,4.0,33,0.00,,,0.00,1.000000,,2013-06-05 08:42:00,
2013-06-05 01:52:00,77.0,46.0,-100.00,SW,234,0.0,4.0,33,0.00,,,0.00,1.000000,,2013-06-05 08:52:00,
2013-06-05 02:02:00,77.0,46.0,-100.00,SW,234,0.0,4.0,33,0.00,,,0.00,1.000000,,2013-06-05 09:02:00,
2013-06-05 02:12:00,77.0,46.0,-100.00,SW,234,0.0,4.0,33,0.00,,,0.00,1.000000,,2013-06-05 09:12:00,
2013-06-05 02:33:00,77.0,45.0,-100.00,South,175,3.0,5.0,32,0.00,,,0.00,1.000000,,2013-06-05 09:33:00,
2013-06-05 02:43:00,77.0,45.0,-100.00,South,175,3.0,5.0,32,0.00,,,0.00,1.000000,,2013-06-05 09:43:00,
2013-06-05 02:53:00,77.0,45.0,-100.00,South,175,3.0,5.0,32,0.00,,,0.00,1.000000,,2013-06-05 09:53:00,
2013-06-05 03:03:00,77.0,45.0,-100.00,South,175,3.0,5.0,32,0.00,,,0.00,1.000000,,2013-06-05 10:03:00,
2013-06-05 03:12:00,77.0,45.0,-100.00,South,175,3.0,5.0,32,0.00,,,0.00,1.000000,,2013-06-05 10:12:00,
2013-06-05 03:33:00,79.0,39.0,-100.00,SSE,150,9.0,10.0,24,0.00,,,0.00,1.000000,,2013-06-05 10:33:00,
2013-06-05 03:43:00,79.0,39.0,-100.00,SSE,150,9.0,10.0,24,0.00,,,0.00,1.000000,,2013-06-05 10:43:00,
2013-06-05 03:52:00,79.0,39.0,-100.00,SSE,150,9.0,10.0,24,0.00,,,0.00,1.000000,,2013-06-05 10:52:00,
2013-06-05 04:02:00,79.0,39.0,-100.00,SSE,150,9.0,10.0,24,0.00,,,0.00,1.000000,,2013-06-05 11:02:00,
2013-06-05 04:12:00,79.0,39.0,-100.00,SSE,150,9.0,10.0,24,0.00,,,0.00,1.000000,,2013-06-05 11:12:00,
2013-06-05 04:33:00,77.0,40.0,-100.00,SE,141,4.0,9.0,27,0.00,,,0.00,1.000000,,2013-06-05 11:33:00,
2013-06-05 04:42:00,77.0,40.0,-100.00,SE,141,4.0,9.0,27,0.00,,,0.00,1.000000,,2013-06-05 11:42:00,
2013-06-05 04:52:00,77.0,40.0,-100.00,SE,141,4.0,9.0,27,0.00,,,0.00,1.000000,,2013-06-05 11:52:00,
2013-06-05 05:02:00,77.0,40.0,-100.00,SE,141,4.0,9.0,27,0.00,,,0.00,1.000000,,2013-06-05 12:02:00,
2013-06-05 05:12:00,77.0,40.0,-100.00,SE,141,4.0,9.0,27,0.00,,,0.00,1.000000,,2013-06-05 12:12:00,
2013-06-05 05:32:00,77.0,38.0,-100.00,East,81,4.0,6.0,25,0.00,,,0.00,1.000000,,2013-06-05 12:32:00,
2013-06-05 05:44:00,77.0,38.0,-100.00,East,81,4.0,6.0,25,0.00,,,0.00,1.000000,,2013-06-05 12:44:00,
2013-06-05 05:52:00,77.0,38.0,-100.00,East,81,4.0,6.0,25,0.00,,,0.00,1.000000,,2013-06-05 12:52:00,
2013-06-05 06:02:00,77.0,38.0,-100.00,East,81,4.0,6.0,25,0.00,,,0.00,1.000000,,2013-06-05 13:02:00,
2013-06-05 06:12:00,77.0,38.0,-100.00,East,81,4.0,6.0,25,0.00,,,0.00,1.000000,,2013-06-05 13:12:00,
2013-06-05 06:33:00,76.0,43.0,-100.00,ENE,63,4.0,6.0,31,0.00,,,0.00,29.000000,,2013-06-05 13:33:00,
2013-06-05 06:42:00,76.0,43.0,-100.00,ENE,63,4.0,6.0,31,0.00,,,0.00,29.000000,,2013-06-05 13:42:00,
2013-06-05 06:52:00,76.0,43.0,-100.00,ENE,63,4.0,6.0,31,0.00,,,0.00,29.000000,,2013-06-05 13:52:00,
2013-06-05 07:02:00,76.0,43.0,-100.00,ENE,63,4.0,6.0,31,0.00,,,0.00,29.000000,,2013-06-05 14:02:00,
2013-06-05 07:12:00,76.0,43.0,-100.00,ENE,63,4.0,6.0,31,0.00,,,0.00,29.000000,,2013-06-05 14:12:00,
2013-06-05 07:42:00,82.0,51.0,-100.00,NNE,31,0.0,7.0,34,0.00,,,0.00,196.000000,,2013-06-05 14:42:00,
2013-06-05 07:52:00,82.0,51.0,-100.00,NNE,31,0.0,7.0,34,0.00,,,0.00,196.000000,,2013-06-05 14:52:00,
2013-06-05 08:02:00,82.0,51.0,-100.00,NNE,31,0.0,7.0,34,0.00,,,0.00,196.000000,,2013-06-05 15:02:00,
2013-06-05 08:12:00,82.0,51.0,-100.00,NNE,31,0.0,7.0,34,0.00,,,0.00,196.000000,,2013-06-05 15:12:00,
2013-06-05 08:33:00,87.0,40.0,-100.00,East,101,2.0,5.0,19,0.00,,,0.00,404.000000,,2013-06-05 15:33:00,
2013-06-05 08:43:00,87.0,40.0,-100.00,East,101,2.0,5.0,19,0.00,,,0.00,404.000000,,2013-06-05 15:43:00,
2013-06-05 08:53:00,87.0,40.0,-100.00,East,101,2.0,5.0,19,0.00,,,0.00,404.000000,,2013-06-05 15:53:00,
2013-06-05 09:03:00,87.0,40.0,-100.00,East,101,2.0,5.0,19,0.00,,,0.00,404.000000,,2013-06-05 16:03:00,
2013-06-05 09:12:00,87.0,40.0,-100.00,East,101,2.0,5.0,19,0.00,,,0.00,404.000000,,2013-06-05 16:12:00,
2013-06-05 09:32:00,89.0,41.0,-100.00,South,181,6.0,9.0,19,0.00,,,0.00,619.000000,,2013-06-05 16:32:00,
2013-06-05 09:42:00,89.0,41.0,-100.00,South,181,6.0,9.0,19,0.00,,,0.00,619.000000,,2013-06-05 16:42:00,
2013-06-05 09:54:00,89.0,41.0,-100.00,South,181,6.0,9.0,19,0.00,,,0.00,619.000000,,2013-06-05 16:54:00,
2013-06-05 10:02:00,89.0,41.0,-100.00,South,181,6.0,9.0,19,0.00,,,0.00,619.000000,,2013-06-05 17:02:00,
2013-06-05 10:12:00,89.0,41.0,-100.00,South,181,6.0,9.0,19,0.00,,,0.00,619.000000,,2013-06-05 17:12:00,
2013-06-05 10:33:00,94.0,43.0,-100.00,SSW,211,5.0,9.0,17,0.00,,,0.00,809.000000,,2013-06-05 17:33:00,
2013-06-05 10:43:00,94.0,43.0,-100.00,SSW,211,5.0,9.0,17,0.00,,,0.00,809.000000,,2013-06-05 17:43:00,
2013-06-05 10:52:00,94.0,43.0,-100.00,SSW,211,5.0,9.0,17,0.00,,,0.00,809.000000,,2013-06-05 17:52:00,
2013-06-05 11:02:00,94.0,43.0,-100.00,SSW,211,5.0,9.0,17,0.00,,,0.00,809.000000,,2013-06-05 18:02:00,
2013-06-05 11:12:00,94.0,43.0,-100.00,SSW,211,5.0,9.0,17,0.00,,,0.00,809.000000,,2013-06-05 18:12:00,
2013-06-05 11:42:00,97.0,34.0,-100.00,SSW,199,6.0,10.0,11,0.00,,,0.00,955.000000,,2013-06-05 18:42:00,
2013-06-05 11:52:00,97.0,34.0,-100.00,SSW,199,6.0,10.0,11,0.00,,,0.00,955.000000,,2013-06-05 18:52:00,
2013-06-05 12:02:00,97.0,34.0,-100.00,SSW,199,6.0,10.0,11,0.00,,,0.00,955.000000,,2013-06-05 19:02:00,
2013-06-05 12:12:00,97.0,34.0,-100.00,SSW,199,6.0,10.0,11,0.00,,,0.00,955.000000,,2013-06-05 19:12:00,
2013-06-05 12:32:00,100.0,36.0,-100.00,SSW,202,6.0,13.0,11,0.00,,,0.00,1041.000000,,2013-06-05 19:32:00,
2013-06-05 12:42:00,100.0,36.0,-100.00,SSW,202,6.0,13.0,11,0.00,,,0.00,1041.000000,,2013-06-05 19:42:00,
2013-06-05 12:52:00,100.0,36.0,-100.00,SSW,202,6.0,13.0,11,0.00,,,0.00,1041.000000,,2013-06-05 19:52:00,
2013-06-05 13:02:00,100.0,36.0,-100.00,SSW,202,6.0,13.0,11,0.00,,,0.00,1041.000000,,2013-06-05 20:02:00,
2013-06-05 13:12:00,100.0,36.0,-100.00,SSW,202,6.0,13.0,11,0.00,,,0.00,1041.000000,,2013-06-05 20:12:00,
2013-06-05 13:32:00,102.0,38.0,-100.00,South,173,6.0,14.0,11,0.00,,,0.00,1066.000000,,2013-06-05 20:32:00,
2013-06-05 13:42:00,102.0,38.0,-100.00,South,173,6.0,14.0,11,0.00,,,0.00,1066.000000,,2013-06-05 20:42:00,
2013-06-05 13:52:00,102.0,38.0,-100.00,South,173,6.0,14.0,11,0.00,,,0.00,1066.000000,,2013-06-05 20:52:00,
2013-06-05 14:02:00,102.0,38.0,-100.00,South,173,6.0,14.0,11,0.00,,,0.00,1066.000000,,2013-06-05 21:02:00,
2013-06-05 14:12:00,102.0,38.0,-100.00,South,173,6.0,14.0,11,0.00,,,0.00,1066.000000,,2013-06-05 21:12:00,
2013-06-05 14:33:00,104.0,39.0,-100.00,WSW,245,5.0,14.0,11,0.00,,,0.00,1031.000000,,2013-06-05 21:33:00,
2013-06-05 14:43:00,104.0,39.0,-100.00,WSW,245,5.0,14.0,11,0.00,,,0.00,1031.000000,,2013-06-05 21:43:00,
2013-06-05 14:53:00,104.0,39.0,-100.00,WSW,245,5.0,14.0,11,0.00,,,0.00,1031.000000,,2013-06-05 21:53:00,
2013-06-05 15:02:00,104.0,39.0,-100.00,WSW,245,5.0,14.0,11,0.00,,,0.00,1031.000000,,2013-06-05 22:02:00,
2013-06-05 15:12:00,104.0,39.0,-100.00,WSW,245,5.0,14.0,11,0.00,,,0.00,1031.000000,,2013-06-05 22:12:00,
2013-06-05 15:33:00,105.0,37.0,-100.00,West,268,5.0,20.0,10,0.00,,,0.00,934.000000,,2013-06-05 22:33:00,
2013-06-05 15:43:00,105.0,37.0,-100.00,West,268,5.0,20.0,10,0.00,,,0.00,934.000000,,2013-06-05 22:43:00,
2013-06-05 15:52:00,105.0,37.0,-100.00,West,268,5.0,20.0,10,0.00,,,0.00,934.000000,,2013-06-05 22:52:00,
2013-06-05 16:02:00,105.0,37.0,-100.00,West,268,5.0,20.0,10,0.00,,,0.00,934.000000,,2013-06-05 23:02:00,
2013-06-05 16:12:00,105.0,37.0,-100.00,West,268,5.0,20.0,10,0.00,,,0.00,934.000000,,2013-06-05 23:12:00,
2013-06-05 16:32:00,105.0,35.0,-100.00,West,259,6.0,11.0,9,0.00,,,0.00,779.000000,,2013-06-05 23:32:00,
2013-06-05 16:42:00,105.0,35.0,-100.00,West,259,6.0,11.0,9,0.00,,,0.00,779.000000,,2013-06-05 23:42:00,
2013-06-05 16:53:00,105.0,35.0,-100.00,West,259,6.0,11.0,9,0.00,,,0.00,779.000000,,2013-06-05 23:53:00,
2013-06-05 17:02:00,105.0,35.0,-100.00,West,259,6.0,11.0,9,0.00,,,0.00,779.000000,,2013-06-06 00:02:00,
2013-06-05 17:12:00,105.0,35.0,-100.00,West,259,6.0,11.0,9,0.00,,,0.00,779.000000,,2013-06-06 00:12:00,
2013-06-05 17:43:00,104.0,39.0,-100.00,West,267,7.0,12.0,11,0.00,,,0.00,573.000000,,2013-06-06 00:43:00,
2013-06-05 17:52:00,104.0,39.0,-100.00,West,267,7.0,12.0,11,0.00,,,0.00,573.000000,,2013-06-06 00:52:00,
2013-06-05 18:02:00,104.0,39.0,-100.00,West,267,7.0,12.0,11,0.00,,,0.00,573.000000,,2013-06-06 01:02:00,
2013-06-05 18:12:00,104.0,39.0,-100.00,West,267,7.0,12.0,11,0.00,,,0.00,573.000000,,2013-06-06 01:12:00,
2013-06-05 18:32:00,102.0,42.0,-100.00,West,270,7.0,11.0,13,0.00,,,0.00,362.000000,,2013-06-06 01:32:00,
2013-06-05 18:42:00,102.0,42.0,-100.00,West,270,7.0,11.0,13,0.00,,,0.00,362.000000,,2013-06-06 01:42:00,
2013-06-05 18:53:00,102.0,42.0,-100.00,West,270,7.0,11.0,13,0.00,,,0.00,362.000000,,2013-06-06 01:53:00,
2013-06-05 19:02:00,102.0,42.0,-100.00,West,270,7.0,11.0,13,0.00,,,0.00,362.000000,,2013-06-06 02:02:00,
2013-06-05 19:12:00,102.0,42.0,-100.00,West,270,7.0,11.0,13,0.00,,,0.00,362.000000,,2013-06-06 02:12:00,
2013-06-05 19:32:00,100.0,42.0,-100.00,WNW,303,4.0,8.0,14,0.00,,,0.00,155.000000,,2013-06-06 02:32:00,
2013-06-05 19:42:00,100.0,42.0,-100.00,WNW,303,4.0,8.0,14,0.00,,,0.00,155.000000,,2013-06-06 02:42:00,
2013-06-05 19:52:00,100.0,42.0,-100.00,WNW,303,4.0,8.0,14,0.00,,,0.00,155.000000,,2013-06-06 02:52:00,
2013-06-05 20:02:00,100.0,42.0,-100.00,WNW,303,4.0,8.0,14,0.00,,,0.00,155.000000,,2013-06-06 03:02:00,
2013-06-05 20:12:00,100.0,42.0,-100.00,WNW,303,4.0,8.0,14,0.00,,,0.00,155.000000,,2013-06-06 03:12:00,
2013-06-05 20:33:00,92.0,41.0,-100.00,SW,233,2.0,4.0,17,0.00,,,0.00,13.000000,,2013-06-06 03:33:00,
2013-06-05 20:43:00,92.0,41.0,-100.00,SW,233,2.0,4.0,17,0.00,,,0.00,13.000000,,2013-06-06 03:43:00,
2013-06-05 20:52:00,92.0,41.0,-100.00,SW,233,2.0,4.0,17,0.00,,,0.00,13.000000,,2013-06-06 03:52:00,
2013-06-05 21:03:00,92.0,41.0,-100.00,SW,233,2.0,4.0,17,0.00,,,0.00,13.000000,,2013-06-06 04:03:00,
2013-06-05 21:13:00,92.0,41.0,-100.00,SW,233,2.0,4.0,17,0.00,,,0.00,13.000000,,2013-06-06 04:13:00,
2013-06-05 21:33:00,89.0,41.0,-100.00,SSW,204,4.0,6.0,19,0.00,,,0.00,1.000000,,2013-06-06 04:33:00,
2013-06-05 21:42:00,89.0,41.0,-100.00,SSW,204,4.0,6.0,19,0.00,,,0.00,1.000000,,2013-06-06 04:42:00,
2013-06-05 21:53:00,89.0,41.0,-100.00,SSW,204,4.0,6.0,19,0.00,,,0.00,1.000000,,2013-06-06 04:53:00,
2013-06-05 22:02:00,89.0,41.0,-100.00,SSW,204,4.0,6.0,19,0.00,,,0.00,1.000000,,2013-06-06 05:02:00,
2013-06-05 22:12:00,89.0,41.0,-100.00,SSW,204,4.0,6.0,19,0.00,,,0.00,1.000000,,2013-06-06 05:12:00,
2013-06-05 22:32:00,88.0,39.0,-100.00,South,188,6.0,8.0,18,0.00,,,0.00,1.000000,,2013-06-06 05:32:00,
2013-06-05 22:42:00,88.0,39.0,-100.00,South,188,6.0,8.0,18,0.00,,,0.00,1.000000,,2013-06-06 05:42:00,
2013-06-05 22:52:00,88.0,39.0,-100.00,South,188,6.0,8.0,18,0.00,,,0.00,1.000000,,2013-06-06 05:52:00,
2013-06-05 23:02:00,88.0,39.0,-100.00,South,188,6.0,8.0,18,0.00,,,0.00,1.000000,,2013-06-06 06:02:00,
2013-06-05 23:12:00,88.0,39.0,-100.00,South,188,6.0,8.0,18,0.00,,,0.00,1.000000,,2013-06-06 06:12:00,
2013-06-05 23:33:00,84.0,44.0,-100.00,South,188,4.0,6.0,25,0.00,,,0.00,1.000000,,2013-06-06 06:33:00,
2013-06-05 23:42:00,84.0,44.0,-100.00,South,188,4.0,6.0,25,0.00,,,0.00,1.000000,,2013-06-06 06:42:00,
2013-06-05 23:52:00,84.0,44.0,-100.00,South,188,4.0,6.0,25,0.00,,,0.00,1.000000,,2013-06-06 06:52:00,